Weather in Terehovka

Belarus     52°13′00″N   31°25′23″E
temp.,
°C
wind,
m/s
gust,
m/s
humid.,
%
clouds,
%
prec.,
mm/h
press.,
hPa
HPBL,
m
19 june, sat
sat1900:00+16e410943 0.0 1024184
03:00+14e36950 0.0 1024113
06:00+15e37930 0.0 1023162
09:00+21e57760 0.0 1023465
12:00+25ese56640 0.0 10231076
15:00+26ese56589 0.0 10211508
18:00+26e56680 0.0 10211059
21:00+21e49880 0.0 1021194
20 june, sun
sun2000:00+19ese410950 0.0 1021206
03:00+17e38960 0.0 1021150
06:00+17e499246 0.0 1021241
09:00+21ese587392 0.0 1021459
12:00+24ese6862100 0.0 1020798
15:00+26ese6857100 0.0 10191015
18:00+24e5870100 0.0 1018732
21:00+21e51082100 0.0 1018304
21 june, mon
mon2100:00+19ese5128593 0.0 1017334
03:00+19e498296 0.0 1016248
06:00+17e4108950 0.0 1016237
09:00+22e69715 0.0 1016517
12:00+25ese68635 0.0 1015822
15:00+28se69555 0.0 10141261
18:00+27sse4863100 0.0 1014770
21:00+22ese41084100 0.0 1014245
22 june, tue
tue2200:00+19ese4119420 0.0 1015234
03:00+18ese389658 0.0 1015154
06:00+19ese37936 0.0 1015171
09:00+24se457376 0.0 1015422
12:00+28se45598 0.0 1015945
15:00+29se685126 0.0 10151298
18:00+27se576184 0.0 1015717
21:00+21ese478375 0.0 1016108
23 june, wed
wed2300:00+20ese478923 0.0 1016108
03:00+19e349361 0.0 101673
06:00+20e38935 0.0 1016164
09:00+25e587151 0.0 1016413
12:00+29ese68568 0.0 1016832
15:00+31ese68485 0.0 10161334
18:00+30ese47604 0.0 1016793
21:00+24ese4782100 0.0 1016118